Time,TemperatureF,DewpointF,PressureIn,WindDirection,WindDirectionDegrees,WindSpeedMPH,WindSpeedGustMPH,Humidity,HourlyPrecipIn,Conditions,Clouds,dailyrainin,SoftwareType,DateUTC
2013-08-28 00:01:00,74.9,72.4,29.76,West,272,0.0,0.0,92,0.00,,---,0.00,VWS V14.01,2013-08-28 05:01:00,
2013-08-28 00:11:00,74.7,72.2,29.76,West,272,0.0,0.0,92,0.00,,---,0.00,VWS V14.01,2013-08-28 05:11:00,
2013-08-28 00:21:00,74.7,72.2,29.76,West,272,0.0,0.0,92,0.00,,---,0.00,VWS V14.01,2013-08-28 05:21:00,
2013-08-28 00:31:00,74.9,72.4,29.76,West,272,0.0,0.0,92,0.00,,---,0.00,VWS V14.01,2013-08-28 05:31:00,
2013-08-28 00:41:00,74.7,72.2,29.76,West,272,0.0,0.0,92,0.00,,---,0.00,VWS V14.01,2013-08-28 05:41:00,
2013-08-28 00:46:00,74.6,72.1,29.77,West,272,0.0,0.0,92,0.00,,---,0.00,VWS V14.01,2013-08-28 05:46:00,
2013-08-28 00:51:00,74.6,72.1,29.77,West,272,0.0,0.0,92,0.00,,---,0.00,VWS V14.01,2013-08-28 05:51:00,
2013-08-28 00:56:00,74.4,71.9,29.77,West,272,0.0,0.0,92,0.00,,---,0.00,VWS V14.01,2013-08-28 05:56:00,
2013-08-28 01:11:00,74.2,71.7,29.77,West,272,0.0,0.0,92,0.00,,---,0.00,VWS V14.01,2013-08-28 06:11:00,
2013-08-28 01:21:00,74.2,71.7,29.76,West,272,0.0,0.0,92,0.00,,---,0.00,VWS V14.01,2013-08-28 06:21:00,
2013-08-28 01:26:00,74.0,71.5,29.76,West,272,0.0,0.0,92,0.00,,---,0.00,VWS V14.01,2013-08-28 06:26:00,
2013-08-28 01:31:00,73.9,71.4,29.76,West,272,0.0,0.0,92,0.00,,---,0.00,VWS V14.01,2013-08-28 06:31:00,
2013-08-28 01:41:00,73.5,71.0,29.77,West,272,0.0,0.0,92,0.00,,---,0.00,VWS V14.01,2013-08-28 06:41:00,
2013-08-28 01:46:00,73.5,71.0,29.77,West,272,0.0,0.0,92,0.00,,---,0.00,VWS V14.01,2013-08-28 06:46:00,
2013-08-28 01:56:00,73.3,70.8,29.77,West,272,0.0,0.0,92,0.00,,---,0.00,VWS V14.01,2013-08-28 06:56:00,
2013-08-28 02:01:00,73.3,71.2,29.77,West,272,0.0,0.0,93,0.00,,---,0.00,VWS V14.01,2013-08-28 07:01:00,
2013-08-28 02:06:00,73.3,71.2,29.76,West,272,0.0,0.0,93,0.00,,---,0.00,VWS V14.01,2013-08-28 07:06:00,
2013-08-28 02:16:00,73.2,71.1,29.76,West,272,0.0,0.0,93,0.00,,---,0.00,VWS V14.01,2013-08-28 07:16:00,
2013-08-28 02:21:00,73.2,71.1,29.76,West,272,0.0,0.0,93,0.00,,---,0.00,VWS V14.01,2013-08-28 07:21:00,
2013-08-28 02:26:00,73.0,70.9,29.76,West,272,0.0,0.0,93,0.00,,---,0.00,VWS V14.01,2013-08-28 07:26:00,
2013-08-28 02:36:00,72.7,70.6,29.76,West,272,0.0,0.0,93,0.00,,---,0.00,VWS V14.01,2013-08-28 07:36:00,
2013-08-28 02:41:00,72.7,70.6,29.76,West,272,0.0,0.0,93,0.00,,---,0.00,VWS V14.01,2013-08-28 07:41:00,
2013-08-28 02:46:00,72.7,70.6,29.76,West,272,0.0,0.0,93,0.00,,---,0.00,VWS V14.01,2013-08-28 07:46:00,
2013-08-28 02:51:00,72.5,70.4,29.76,West,272,0.0,0.0,93,0.00,,---,0.00,VWS V14.01,2013-08-28 07:51:00,
2013-08-28 02:56:00,72.5,70.4,29.76,West,272,0.0,0.0,93,0.00,,---,0.00,VWS V14.01,2013-08-28 07:56:00,
2013-08-28 03:01:00,72.5,70.4,29.75,West,272,0.0,0.0,93,0.00,,---,0.00,VWS V14.01,2013-08-28 08:01:00,
2013-08-28 03:06:00,72.7,70.9,29.75,West,272,0.0,0.0,94,0.00,,---,0.00,VWS V14.01,2013-08-28 08:06:00,
2013-08-28 03:11:00,72.8,70.7,29.75,West,272,0.0,0.0,93,0.00,,---,0.00,VWS V14.01,2013-08-28 08:11:00,
2013-08-28 03:21:00,72.7,70.6,29.76,West,272,0.0,0.0,93,0.00,,---,0.00,VWS V14.01,2013-08-28 08:21:00,
2013-08-28 03:31:00,72.5,70.7,29.76,West,272,0.0,0.0,94,0.00,,---,0.00,VWS V14.01,2013-08-28 08:31:00,
2013-08-28 03:36:00,72.5,70.7,29.76,West,272,0.0,0.0,94,0.00,,---,0.00,VWS V14.01,2013-08-28 08:36:00,
2013-08-28 03:41:00,72.5,70.7,29.76,West,272,0.0,0.0,94,0.00,,---,0.00,VWS V14.01,2013-08-28 08:41:00,
2013-08-28 03:46:00,72.3,70.5,29.76,West,272,0.0,0.0,94,0.00,,---,0.00,VWS V14.01,2013-08-28 08:46:00,
2013-08-28 03:56:00,72.3,70.5,29.76,West,272,0.0,0.0,94,0.00,,---,0.00,VWS V14.01,2013-08-28 08:56:00,
2013-08-28 04:01:00,72.1,70.3,29.76,West,272,0.0,0.0,94,0.00,,---,0.00,VWS V14.01,2013-08-28 09:01:00,
2013-08-28 04:06:00,72.1,70.3,29.76,West,272,0.0,0.0,94,0.00,,---,0.00,VWS V14.01,2013-08-28 09:06:00,
2013-08-28 04:11:00,72.3,70.5,29.77,West,272,0.0,0.0,94,0.00,,---,0.00,VWS V14.01,2013-08-28 09:11:00,
2013-08-28 04:16:00,72.5,70.7,29.76,West,272,0.0,0.0,94,0.00,,---,0.00,VWS V14.01,2013-08-28 09:16:00,
2013-08-28 04:21:00,72.5,70.7,29.76,West,272,0.0,0.0,94,0.00,,---,0.00,VWS V14.01,2013-08-28 09:21:00,
2013-08-28 04:26:00,72.5,70.7,29.77,West,272,0.0,0.0,94,0.00,,---,0.00,VWS V14.01,2013-08-28 09:26:00,
2013-08-28 04:36:00,71.8,70.0,29.77,West,272,0.0,0.0,94,0.00,,---,0.00,VWS V14.01,2013-08-28 09:36:00,
2013-08-28 04:41:00,71.6,69.8,29.77,West,272,0.0,0.0,94,0.00,,---,0.00,VWS V14.01,2013-08-28 09:41:00,
2013-08-28 04:46:00,71.3,69.5,29.77,West,272,0.0,0.0,94,0.00,,---,0.00,VWS V14.01,2013-08-28 09:46:00,
2013-08-28 04:56:00,71.1,69.3,29.77,West,272,0.0,0.0,94,0.00,,---,0.00,VWS V14.01,2013-08-28 09:56:00,
2013-08-28 05:01:00,71.1,69.3,29.77,West,272,0.0,0.0,94,0.00,,---,0.00,VWS V14.01,2013-08-28 10:01:00,
2013-08-28 05:11:00,71.1,69.3,29.78,West,272,0.0,0.0,94,0.00,,---,0.00,VWS V14.01,2013-08-28 10:11:00,
2013-08-28 05:16:00,71.1,69.3,29.77,West,272,0.0,0.0,94,0.00,,---,0.00,VWS V14.01,2013-08-28 10:16:00,
2013-08-28 05:26:00,71.3,69.5,29.78,West,272,0.0,0.0,94,0.00,,---,0.00,VWS V14.01,2013-08-28 10:26:00,
2013-08-28 05:31:00,71.3,69.5,29.78,West,272,0.0,0.0,94,0.00,,---,0.00,VWS V14.01,2013-08-28 10:31:00,
2013-08-28 05:36:00,71.1,69.3,29.77,West,272,0.0,0.0,94,0.00,,---,0.00,VWS V14.01,2013-08-28 10:36:00,
2013-08-28 05:41:00,71.1,69.3,29.77,West,272,0.0,0.0,94,0.00,,---,0.00,VWS V14.01,2013-08-28 10:41:00,
2013-08-28 05:46:00,71.1,69.6,29.78,West,272,0.0,0.0,95,0.00,,---,0.00,VWS V14.01,2013-08-28 10:46:00,
2013-08-28 05:56:00,70.9,69.1,29.78,West,272,0.0,0.0,94,0.00,,---,0.00,VWS V14.01,2013-08-28 10:56:00,
2013-08-28 06:06:00,70.8,69.3,29.78,West,272,0.0,0.0,95,0.00,,---,0.00,VWS V14.01,2013-08-28 11:06:00,
2013-08-28 06:11:00,70.8,69.3,29.78,West,272,0.0,0.0,95,0.00,,---,0.00,VWS V14.01,2013-08-28 11:11:00,
2013-08-28 06:16:00,70.8,69.3,29.78,West,272,0.0,0.0,95,0.00,,---,0.00,VWS V14.01,2013-08-28 11:16:00,
2013-08-28 06:21:00,70.9,69.4,29.78,West,272,0.0,0.0,95,0.00,,---,0.00,VWS V14.01,2013-08-28 11:21:00,
2013-08-28 06:26:00,70.9,69.4,29.78,West,272,0.0,0.0,95,0.00,,---,0.00,VWS V14.01,2013-08-28 11:26:00,
2013-08-28 06:31:00,70.9,69.4,29.78,West,272,0.0,0.0,95,0.00,,---,0.00,VWS V14.01,2013-08-28 11:31:00,
2013-08-28 06:36:00,70.9,69.4,29.78,West,272,0.0,0.0,95,0.00,,---,0.00,VWS V14.01,2013-08-28 11:36:00,
2013-08-28 06:41:00,70.8,69.3,29.79,West,272,0.0,0.0,95,0.00,,---,0.00,VWS V14.01,2013-08-28 11:41:00,
2013-08-28 06:46:00,70.6,69.1,29.79,West,272,0.0,0.0,95,0.00,,---,0.00,VWS V14.01,2013-08-28 11:46:00,
2013-08-28 06:56:00,70.6,69.1,29.79,West,272,0.0,0.0,95,0.00,,---,0.00,VWS V14.01,2013-08-28 11:56:00,
2013-08-28 07:01:00,70.6,69.1,29.79,West,272,0.0,0.0,95,0.00,,---,0.00,VWS V14.01,2013-08-28 12:01:00,
2013-08-28 07:06:00,70.8,69.3,29.80,West,272,0.0,0.0,95,0.00,,---,0.00,VWS V14.01,2013-08-28 12:06:00,
2013-08-28 07:11:00,70.9,69.4,29.80,West,272,0.0,0.0,95,0.00,,---,0.00,VWS V14.01,2013-08-28 12:11:00,
2013-08-28 07:16:00,71.5,70.3,29.81,West,272,0.0,0.0,96,0.00,,---,0.00,VWS V14.01,2013-08-28 12:16:00,
2013-08-28 07:26:00,71.8,70.3,29.81,West,272,0.0,0.0,95,0.00,,---,0.00,VWS V14.01,2013-08-28 12:26:00,
2013-08-28 07:31:00,72.0,70.5,29.81,West,272,0.0,0.0,95,0.00,,---,0.00,VWS V14.01,2013-08-28 12:31:00,
2013-08-28 07:36:00,72.1,70.9,29.81,West,272,0.0,0.0,96,0.00,,---,0.00,VWS V14.01,2013-08-28 12:36:00,
2013-08-28 07:46:00,72.8,71.6,29.81,West,272,0.0,0.0,96,0.00,,---,0.00,VWS V14.01,2013-08-28 12:46:00,
2013-08-28 07:51:00,73.2,72.0,29.81,West,272,0.0,0.0,96,0.00,,---,0.00,VWS V14.01,2013-08-28 12:51:00,
2013-08-28 07:56:00,73.3,72.1,29.81,West,272,0.0,0.0,96,0.00,,---,0.00,VWS V14.01,2013-08-28 12:56:00,
2013-08-28 08:01:00,73.7,72.2,29.81,West,272,0.0,0.0,95,0.00,,---,0.00,VWS V14.01,2013-08-28 13:01:00,
2013-08-28 08:11:00,74.4,72.9,29.82,West,272,0.0,0.0,95,0.00,,---,0.00,VWS V14.01,2013-08-28 13:11:00,
2013-08-28 08:16:00,74.6,72.8,29.81,West,272,0.0,0.0,94,0.00,,---,0.00,VWS V14.01,2013-08-28 13:16:00,
2013-08-28 08:26:00,75.3,73.5,29.81,West,272,0.0,0.0,94,0.00,,---,0.00,VWS V14.01,2013-08-28 13:26:00,
2013-08-28 08:36:00,75.8,73.3,29.81,West,272,0.0,0.0,92,0.00,,---,0.00,VWS V14.01,2013-08-28 13:36:00,
2013-08-28 08:41:00,76.1,73.6,29.82,West,272,0.0,0.0,92,0.00,,---,0.00,VWS V14.01,2013-08-28 13:41:00,
2013-08-28 08:46:00,76.5,73.7,29.81,West,272,0.0,0.0,91,0.00,,---,0.00,VWS V14.01,2013-08-28 13:46:00,
2013-08-28 08:56:00,77.2,73.4,29.81,West,272,0.0,0.0,88,0.00,,---,0.00,VWS V14.01,2013-08-28 13:56:00,
2013-08-28 09:01:00,77.4,73.6,29.81,West,272,0.0,0.0,88,0.00,,---,0.00,VWS V14.01,2013-08-28 14:01:00,
2013-08-28 09:11:00,77.7,73.2,29.82,West,272,0.0,0.0,86,0.00,,---,0.00,VWS V14.01,2013-08-28 14:11:00,
2013-08-28 09:16:00,77.7,73.2,29.82,West,272,0.0,0.0,86,0.00,,---,0.00,VWS V14.01,2013-08-28 14:16:00,
2013-08-28 09:26:00,77.9,73.4,29.82,West,272,0.0,0.0,86,0.00,,---,0.00,VWS V14.01,2013-08-28 14:26:00,
2013-08-28 09:31:00,78.3,73.4,29.82,West,272,0.0,0.0,85,0.00,,---,0.00,VWS V14.01,2013-08-28 14:31:00,
2013-08-28 09:41:00,79.4,74.2,29.82,West,272,0.0,0.0,84,0.00,,---,0.00,VWS V14.01,2013-08-28 14:41:00,
2013-08-28 09:46:00,79.8,73.8,29.82,West,272,0.0,0.0,82,0.00,,---,0.00,VWS V14.01,2013-08-28 14:46:00,
2013-08-28 09:51:00,80.1,73.4,29.82,West,272,0.0,0.0,80,0.00,,---,0.00,VWS V14.01,2013-08-28 14:51:00,
2013-08-28 09:56:00,80.5,73.8,29.82,West,273,0.0,0.0,80,0.00,,---,0.00,VWS V14.01,2013-08-28 14:56:00,
2013-08-28 10:06:00,81.1,74.0,29.82,WSW,246,0.0,1.0,79,0.00,,---,0.00,VWS V14.01,2013-08-28 15:06:00,
2013-08-28 10:11:00,81.2,74.1,29.83,WSW,247,0.0,1.0,79,0.00,,---,0.00,VWS V14.01,2013-08-28 15:11:00,
2013-08-28 10:16:00,81.6,74.5,29.83,WSW,248,0.0,1.0,79,0.00,,---,0.00,VWS V14.01,2013-08-28 15:16:00,
2013-08-28 10:21:00,81.6,74.1,29.83,WSW,250,0.0,0.0,78,0.00,,---,0.00,VWS V14.01,2013-08-28 15:21:00,
2013-08-28 10:31:00,81.4,73.9,29.83,WSW,250,0.0,0.0,78,0.00,,---,0.00,VWS V14.01,2013-08-28 15:31:00,
2013-08-28 10:36:00,82.0,74.8,29.84,WSW,250,0.0,0.0,79,0.00,,---,0.00,VWS V14.01,2013-08-28 15:36:00,
2013-08-28 10:46:00,83.6,74.4,29.83,WSW,250,0.0,0.0,74,0.00,,---,0.00,VWS V14.01,2013-08-28 15:46:00,
2013-08-28 10:56:00,83.8,74.6,29.83,WSW,250,0.0,0.0,74,0.00,,---,0.00,VWS V14.01,2013-08-28 15:56:00,
2013-08-28 11:01:00,84.0,75.2,29.83,WSW,244,0.0,0.0,75,0.00,,---,0.00,VWS V14.01,2013-08-28 16:01:00,
2013-08-28 11:06:00,84.1,74.9,29.83,WSW,244,0.0,1.0,74,0.00,,---,0.00,VWS V14.01,2013-08-28 16:06:00,
2013-08-28 11:16:00,84.3,75.1,29.83,WSW,241,0.0,1.0,74,0.00,,---,0.00,VWS V14.01,2013-08-28 16:16:00,
2013-08-28 11:21:00,85.3,76.1,29.83,WSW,241,0.0,0.0,74,0.00,,---,0.00,VWS V14.01,2013-08-28 16:21:00,
2013-08-28 11:26:00,86.1,76.8,29.83,WSW,254,0.0,0.0,74,0.00,,---,0.00,VWS V14.01,2013-08-28 16:26:00,
2013-08-28 11:31:00,87.2,76.2,29.83,SW,219,0.0,0.0,70,0.00,,---,0.00,VWS V14.01,2013-08-28 16:31:00,
2013-08-28 11:36:00,87.0,75.6,29.83,SW,227,0.0,1.0,69,0.00,,---,0.00,VWS V14.01,2013-08-28 16:36:00,
2013-08-28 11:46:00,86.7,75.8,29.83,SSW,200,0.0,1.0,70,0.00,,---,0.00,VWS V14.01,2013-08-28 16:46:00,
2013-08-28 11:56:00,86.5,75.6,29.84,SW,223,0.0,1.0,70,0.00,,---,0.00,VWS V14.01,2013-08-28 16:56:00,
2013-08-28 12:01:00,86.1,75.2,29.84,SSW,212,1.0,1.0,70,0.00,,---,0.00,VWS V14.01,2013-08-28 17:01:00,
2013-08-28 12:06:00,85.9,75.4,29.83,SSW,212,0.0,1.0,71,0.00,,---,0.00,VWS V14.01,2013-08-28 17:06:00,
2013-08-28 12:11:00,86.1,76.4,29.83,SW,221,0.0,1.0,73,0.00,,---,0.00,VWS V14.01,2013-08-28 17:11:00,
2013-08-28 12:16:00,86.1,76.0,29.83,SW,218,0.0,1.0,72,0.00,,---,0.00,VWS V14.01,2013-08-28 17:16:00,
2013-08-28 12:26:00,87.4,77.3,29.83,SW,228,0.0,1.0,72,0.00,,---,0.00,VWS V14.01,2013-08-28 17:26:00,
2013-08-28 12:36:00,88.0,77.0,29.84,SW,230,0.0,0.0,70,0.00,,---,0.00,VWS V14.01,2013-08-28 17:36:00,
2013-08-28 12:46:00,89.0,77.9,29.84,SW,223,0.0,0.0,70,0.00,,---,0.00,VWS V14.01,2013-08-28 17:46:00,
2013-08-28 12:51:00,90.1,79.9,29.84,WSW,241,0.0,0.0,72,0.00,,---,0.00,VWS V14.01,2013-08-28 17:51:00,
2013-08-28 13:01:00,91.6,78.2,29.83,SW,214,0.0,1.0,65,0.00,,---,0.00,VWS V14.01,2013-08-28 18:01:00,
2013-08-28 13:06:00,91.8,78.4,29.83,WSW,241,0.0,0.0,65,0.00,,---,0.00,VWS V14.01,2013-08-28 18:06:00,
2013-08-28 13:16:00,91.0,77.6,29.83,East,90,0.0,1.0,65,0.00,,---,0.00,VWS V14.01,2013-08-28 18:16:00,
2013-08-28 13:21:00,90.5,77.6,29.83,East,90,0.0,0.0,66,0.00,,---,0.00,VWS V14.01,2013-08-28 18:21:00,
2013-08-28 13:31:00,88.8,77.8,29.82,South,183,0.0,0.0,70,0.00,,---,0.00,VWS V14.01,2013-08-28 18:31:00,
2013-08-28 13:36:00,89.0,77.1,29.82,East,92,0.0,0.0,68,0.00,,---,0.00,VWS V14.01,2013-08-28 18:36:00,
2013-08-28 13:41:00,89.5,77.6,29.82,ESE,111,0.0,0.0,68,0.00,,---,0.00,VWS V14.01,2013-08-28 18:41:00,
2013-08-28 13:46:00,89.3,77.8,29.82,ESE,105,0.0,1.0,69,0.00,,---,0.00,VWS V14.01,2013-08-28 18:46:00,
2013-08-28 13:51:00,89.3,77.8,29.82,SSW,202,0.0,1.0,69,0.00,,---,0.00,VWS V14.01,2013-08-28 18:51:00,
2013-08-28 13:56:00,89.3,77.8,29.82,South,184,0.0,0.0,69,0.00,,---,0.00,VWS V14.01,2013-08-28 18:56:00,
2013-08-28 14:06:00,89.5,78.0,29.82,ESE,116,0.0,1.0,69,0.00,,---,0.00,VWS V14.01,2013-08-28 19:06:00,
2013-08-28 14:11:00,89.9,78.8,29.82,SE,128,0.0,0.0,70,0.00,,---,0.00,VWS V14.01,2013-08-28 19:11:00,
2013-08-28 14:21:00,89.9,77.9,29.82,SW,227,0.0,0.0,68,0.00,,---,0.00,VWS V14.01,2013-08-28 19:21:00,
2013-08-28 14:31:00,89.7,77.7,29.82,ESE,107,0.0,0.0,68,0.00,,---,0.00,VWS V14.01,2013-08-28 19:31:00,
2013-08-28 14:36:00,89.9,77.9,29.82,ESE,104,0.0,0.0,68,0.00,,---,0.00,VWS V14.01,2013-08-28 19:36:00,
2013-08-28 14:41:00,90.5,77.6,29.82,ESE,103,0.0,0.0,66,0.00,,---,0.00,VWS V14.01,2013-08-28 19:41:00,
2013-08-28 14:51:00,90.3,77.9,29.82,SSE,161,0.0,0.0,67,0.00,,---,0.00,VWS V14.01,2013-08-28 19:51:00,
2013-08-28 14:56:00,90.1,77.7,29.81,South,188,0.0,0.0,67,0.00,,---,0.00,VWS V14.01,2013-08-28 19:56:00,
2013-08-28 15:06:00,90.7,78.2,29.82,SE,126,0.0,0.0,67,0.00,,---,0.00,VWS V14.01,2013-08-28 20:06:00,
2013-08-28 15:11:00,90.5,77.1,29.81,ESE,110,0.0,1.0,65,0.00,,---,0.00,VWS V14.01,2013-08-28 20:11:00,
2013-08-28 15:21:00,90.7,77.8,29.81,ESE,105,0.0,0.0,66,0.00,,---,0.00,VWS V14.01,2013-08-28 20:21:00,
2013-08-28 15:26:00,90.7,77.3,29.81,SE,128,0.0,0.0,65,0.00,,---,0.00,VWS V14.01,2013-08-28 20:26:00,
2013-08-28 15:31:00,90.5,77.1,29.81,SE,130,0.0,0.0,65,0.00,,---,0.00,VWS V14.01,2013-08-28 20:31:00,
2013-08-28 15:36:00,90.7,77.3,29.81,SSE,148,0.0,0.0,65,0.00,,---,0.00,VWS V14.01,2013-08-28 20:36:00,
2013-08-28 15:41:00,90.7,76.8,29.81,ESE,109,0.0,2.0,64,0.00,,---,0.00,VWS V14.01,2013-08-28 20:41:00,
2013-08-28 15:46:00,90.5,75.2,29.81,ESE,103,0.0,2.0,61,0.00,,---,0.00,VWS V14.01,2013-08-28 20:46:00,
2013-08-28 15:56:00,91.0,77.6,29.81,East,93,0.0,0.0,65,0.00,,---,0.00,VWS V14.01,2013-08-28 20:56:00,
2013-08-28 16:01:00,91.6,76.2,29.80,East,96,0.0,0.0,61,0.00,,---,0.00,VWS V14.01,2013-08-28 21:01:00,
2013-08-28 16:06:00,91.2,75.9,29.80,ESE,102,0.0,1.0,61,0.00,,---,0.00,VWS V14.01,2013-08-28 21:06:00,
2013-08-28 16:11:00,91.2,76.4,29.80,ESE,103,0.0,1.0,62,0.00,,---,0.00,VWS V14.01,2013-08-28 21:11:00,
2013-08-28 16:16:00,91.4,76.1,29.80,ESE,105,0.0,0.0,61,0.00,,---,0.00,VWS V14.01,2013-08-28 21:16:00,
2013-08-28 16:21:00,91.4,75.6,29.80,East,100,0.0,0.0,60,0.00,,---,0.00,VWS V14.01,2013-08-28 21:21:00,
2013-08-28 16:31:00,91.6,75.8,29.81,East,96,0.0,0.0,60,0.00,,---,0.00,VWS V14.01,2013-08-28 21:31:00,
2013-08-28 16:41:00,91.6,75.2,29.81,East,98,0.0,0.0,59,0.00,,---,0.00,VWS V14.01,2013-08-28 21:41:00,
2013-08-28 16:51:00,92.1,75.2,29.80,East,98,0.0,0.0,58,0.00,,---,0.00,VWS V14.01,2013-08-28 21:51:00,
2013-08-28 16:56:00,91.6,75.2,29.81,East,98,0.0,0.0,59,0.00,,---,0.00,VWS V14.01,2013-08-28 21:56:00,
2013-08-28 17:06:00,92.1,77.7,29.81,East,96,0.0,0.0,63,0.00,,---,0.00,VWS V14.01,2013-08-28 22:06:00,
2013-08-28 17:11:00,92.3,74.9,29.80,East,96,0.0,0.0,57,0.00,,---,0.00,VWS V14.01,2013-08-28 22:11:00,
2013-08-28 17:21:00,91.6,74.7,29.80,East,94,0.0,0.0,58,0.00,,---,0.00,VWS V14.01,2013-08-28 22:21:00,
2013-08-28 17:31:00,91.6,74.2,29.80,East,96,0.0,0.0,57,0.00,,---,0.00,VWS V14.01,2013-08-28 22:31:00,
2013-08-28 17:36:00,91.8,74.9,29.80,East,96,0.0,0.0,58,0.00,,---,0.00,VWS V14.01,2013-08-28 22:36:00,
2013-08-28 17:41:00,91.6,74.2,29.80,East,96,0.0,0.0,57,0.00,,---,0.00,VWS V14.01,2013-08-28 22:41:00,
2013-08-28 17:46:00,91.4,74.6,29.80,East,96,0.0,0.0,58,0.00,,---,0.00,VWS V14.01,2013-08-28 22:46:00,
2013-08-28 17:51:00,91.4,75.1,29.80,East,96,0.0,0.0,59,0.00,,---,0.00,VWS V14.01,2013-08-28 22:51:00,
2013-08-28 17:56:00,91.4,74.6,29.81,East,96,0.0,0.0,58,0.00,,---,0.00,VWS V14.01,2013-08-28 22:56:00,
2013-08-28 18:06:00,91.2,73.8,29.80,East,96,0.0,0.0,57,0.00,,---,0.00,VWS V14.01,2013-08-28 23:06:00,
2013-08-28 18:11:00,91.0,74.7,29.80,East,96,0.0,0.0,59,0.00,,---,0.00,VWS V14.01,2013-08-28 23:11:00,
2013-08-28 18:16:00,90.7,74.9,29.80,East,96,0.0,0.0,60,0.00,,---,0.00,VWS V14.01,2013-08-28 23:16:00,
2013-08-28 18:21:00,91.0,75.7,29.80,East,96,0.0,0.0,61,0.00,,---,0.00,VWS V14.01,2013-08-28 23:21:00,
2013-08-28 18:26:00,90.7,76.4,29.80,East,96,0.0,0.0,63,0.00,,---,0.00,VWS V14.01,2013-08-28 23:26:00,
2013-08-28 18:31:00,90.5,76.2,29.80,East,96,0.0,0.0,63,0.00,,---,0.00,VWS V14.01,2013-08-28 23:31:00,
2013-08-28 18:41:00,89.9,76.6,29.79,East,96,0.0,0.0,65,0.00,,---,0.00,VWS V14.01,2013-08-28 23:41:00,
2013-08-28 18:51:00,89.3,76.9,29.80,East,96,0.0,0.0,67,0.00,,---,0.00,VWS V14.01,2013-08-28 23:51:00,
2013-08-28 18:56:00,89.3,77.4,29.80,East,96,0.0,0.0,68,0.00,,---,0.00,VWS V14.01,2013-08-28 23:56:00,
2013-08-28 19:01:00,89.3,76.9,29.80,East,95,0.0,0.0,67,0.00,,---,0.00,VWS V14.01,2013-08-29 00:01:00,
2013-08-28 19:11:00,89.0,76.6,29.80,East,94,0.0,0.0,67,0.00,,---,0.00,VWS V14.01,2013-08-29 00:11:00,
2013-08-28 19:16:00,88.6,77.1,29.80,East,94,0.0,0.0,69,0.00,,---,0.00,VWS V14.01,2013-08-29 00:16:00,
2013-08-28 19:21:00,88.6,77.6,29.80,East,94,0.0,0.0,70,0.00,,---,0.00,VWS V14.01,2013-08-29 00:21:00,
2013-08-28 19:31:00,88.2,77.6,29.80,East,94,0.0,0.0,71,0.00,,---,0.00,VWS V14.01,2013-08-29 00:31:00,
2013-08-28 19:36:00,87.8,77.2,29.80,East,94,0.0,0.0,71,0.00,,---,0.00,VWS V14.01,2013-08-29 00:36:00,
2013-08-28 19:41:00,87.6,77.0,29.81,East,94,0.0,0.0,71,0.00,,---,0.00,VWS V14.01,2013-08-29 00:41:00,
2013-08-28 19:46:00,87.2,77.1,29.81,East,94,0.0,0.0,72,0.00,,---,0.00,VWS V14.01,2013-08-29 00:46:00,
2013-08-28 19:51:00,86.5,76.8,29.81,East,94,0.0,0.0,73,0.00,,---,0.00,VWS V14.01,2013-08-29 00:51:00,
2013-08-28 19:56:00,86.1,76.8,29.81,East,94,0.0,0.0,74,0.00,,---,0.00,VWS V14.01,2013-08-29 00:56:00,
2013-08-28 20:01:00,85.7,76.9,29.81,East,94,0.0,0.0,75,0.00,,---,0.00,VWS V14.01,2013-08-29 01:01:00,
2013-08-28 20:11:00,84.9,76.5,29.81,East,94,0.0,0.0,76,0.00,,---,0.00,VWS V14.01,2013-08-29 01:11:00,
2013-08-28 20:16:00,84.5,76.5,29.81,East,94,0.0,0.0,77,0.00,,---,0.00,VWS V14.01,2013-08-29 01:16:00,
2013-08-28 20:21:00,84.1,76.1,29.82,East,94,0.0,0.0,77,0.00,,---,0.00,VWS V14.01,2013-08-29 01:21:00,
2013-08-28 20:26:00,83.8,76.2,29.82,East,94,0.0,0.0,78,0.00,,---,0.00,VWS V14.01,2013-08-29 01:26:00,
2013-08-28 20:36:00,82.4,75.2,29.82,East,94,0.0,0.0,79,0.00,,---,0.00,VWS V14.01,2013-08-29 01:36:00,
2013-08-28 20:41:00,81.8,75.0,29.82,East,94,0.0,0.0,80,0.00,,---,0.00,VWS V14.01,2013-08-29 01:41:00,
2013-08-28 20:51:00,81.2,74.8,29.83,East,94,0.0,0.0,81,0.00,,---,0.00,VWS V14.01,2013-08-29 01:51:00,
2013-08-28 20:56:00,80.9,74.9,29.83,East,94,0.0,0.0,82,0.00,,---,0.00,VWS V14.01,2013-08-29 01:56:00,
2013-08-28 21:01:00,80.7,74.7,29.83,East,94,0.0,0.0,82,0.00,,---,0.00,VWS V14.01,2013-08-29 02:01:00,
2013-08-28 21:06:00,80.5,74.9,29.82,East,94,0.0,0.0,83,0.00,,---,0.00,VWS V14.01,2013-08-29 02:06:00,
2013-08-28 21:11:00,80.3,74.7,29.83,East,94,0.0,0.0,83,0.00,,---,0.00,VWS V14.01,2013-08-29 02:11:00,
2013-08-28 21:21:00,80.1,74.8,29.83,East,94,0.0,0.0,84,0.00,,---,0.00,VWS V14.01,2013-08-29 02:21:00,
2013-08-28 21:26:00,79.8,74.5,29.83,East,94,0.0,0.0,84,0.00,,---,0.00,VWS V14.01,2013-08-29 02:26:00,
2013-08-28 21:36:00,79.2,74.3,29.83,East,94,0.0,0.0,85,0.00,,---,0.00,VWS V14.01,2013-08-29 02:36:00,
2013-08-28 21:41:00,79.4,74.8,29.83,East,94,0.0,0.0,86,0.00,,---,0.00,VWS V14.01,2013-08-29 02:41:00,
2013-08-28 21:46:00,79.4,75.2,29.83,East,94,0.0,0.0,87,0.00,,---,0.00,VWS V14.01,2013-08-29 02:46:00,
2013-08-28 21:51:00,79.6,75.4,29.83,East,94,0.0,0.0,87,0.00,,---,0.00,VWS V14.01,2013-08-29 02:51:00,
2013-08-28 22:01:00,79.8,75.9,29.83,East,94,0.0,0.0,88,0.00,,---,0.00,VWS V14.01,2013-08-29 03:01:00,
2013-08-28 22:06:00,79.8,75.9,29.82,East,94,0.0,0.0,88,0.00,,---,0.00,VWS V14.01,2013-08-29 03:06:00,
2013-08-28 22:16:00,79.4,75.5,29.83,East,94,0.0,0.0,88,0.00,,---,0.00,VWS V14.01,2013-08-29 03:16:00,
2013-08-28 22:21:00,79.2,75.7,29.83,East,92,0.0,0.0,89,0.00,,---,0.00,VWS V14.01,2013-08-29 03:21:00,
2013-08-28 22:31:00,79.0,75.5,29.83,East,90,0.0,0.0,89,0.00,,---,0.00,VWS V14.01,2013-08-29 03:31:00,
2013-08-28 22:41:00,78.8,75.6,29.84,East,90,0.0,0.0,90,0.00,,---,0.00,VWS V14.01,2013-08-29 03:41:00,
2013-08-28 22:46:00,78.6,75.4,29.84,East,90,0.0,0.0,90,0.00,,---,0.00,VWS V14.01,2013-08-29 03:46:00,
2013-08-28 22:51:00,78.6,75.4,29.84,East,90,0.0,0.0,90,0.00,,---,0.00,VWS V14.01,2013-08-29 03:51:00,
2013-08-28 22:56:00,78.3,75.1,29.84,East,90,0.0,0.0,90,0.00,,---,0.00,VWS V14.01,2013-08-29 03:56:00,
2013-08-28 23:06:00,77.4,74.2,29.84,East,90,0.0,0.0,90,0.00,,---,0.00,VWS V14.01,2013-08-29 04:06:00,
2013-08-28 23:11:00,77.0,73.8,29.84,East,90,0.0,0.0,90,0.00,,---,0.00,VWS V14.01,2013-08-29 04:11:00,
2013-08-28 23:16:00,76.8,73.7,29.84,East,90,0.0,0.0,90,0.00,,---,0.00,VWS V14.01,2013-08-29 04:16:00,
2013-08-28 23:26:00,76.7,73.9,29.84,East,90,0.0,0.0,91,0.00,,---,0.00,VWS V14.01,2013-08-29 04:26:00,
2013-08-28 23:31:00,76.3,73.2,29.84,East,90,0.0,0.0,90,0.00,,---,0.00,VWS V14.01,2013-08-29 04:31:00,
2013-08-28 23:36:00,76.0,72.9,29.84,East,90,0.0,0.0,90,0.00,,---,0.00,VWS V14.01,2013-08-29 04:36:00,
2013-08-28 23:41:00,75.4,72.3,29.84,East,90,0.0,0.0,90,0.00,,---,0.00,VWS V14.01,2013-08-29 04:41:00,
2013-08-28 23:46:00,75.1,72.0,29.84,East,90,0.0,0.0,90,0.00,,---,0.00,VWS V14.01,2013-08-29 04:46:00,
2013-08-28 23:51:00,74.9,71.8,29.84,East,90,0.0,0.0,90,0.00,,---,0.00,VWS V14.01,2013-08-29 04:51:00,
2013-08-28 23:56:00,74.6,71.5,29.84,East,90,0.0,0.0,90,0.00,,---,0.00,VWS V14.01,2013-08-29 04:56:00,